Wind_Speed
28 29 29 30 31 32 33 34 35 36 37 38 38 39 40 41 41 42 42 43 44 45 45 46 46 47 48 48 48 48 48 48 48 49 48 48 48 48 48 48 47 47 47
28 29 30 30 31 32 33 34 35 36 37 38 39 41 42 42 43 44 45 45 46 48 49 49 50 51 52 52 52 53 53 53 53 53 53 52 52 51 51 51 51 50 50
29 29 30 31 32 32 33 34 35 36 37 38 40 41 42 43 43 44 45 46 47 48 49 50 51 52 53 54 55 55 56 56 56 56 56 55 55 55 55 54 54 54 53
30 31 31 32 33 33 34 35 36 37 37 38 39 40 41 42 42 43 44 46 47 47 48 50 51 52 53 54 55 56 57 57 57 58 58 58 58 58 58 57 57 56 56
33 33 34 34 35 35 35 36 37 37 38 39 39 40 41 42 42 43 44 45 46 47 48 49 51 52 54 55 56 57 58 59 59 60 60 61 61 61 61 60 60 59 59
34 34 34 34 35 35 35 36 37 38 38 39 40 40 41 42 42 43 44 45 46 48 50 51 52 54 55 57 59 60 61 61 62 62 63 63 63 63 63 63 63 62 62
33 33 33 34 34 35 36 36 37 37 38 39 40 40 40 42 43 45 46 47 49 50 52 54 55 56 58 59 61 62 64 65 65 66 66 66 66 66 66 66 66 65 65
32 32 32 33 33 34 35 36 37 37 39 41 43 44 43 43 46 48 49 51 52 54 55 57 60 61 63 64 65 66 68 69 70 71 71 71 71 70 70 70 69 69 68
31 31 32 33 34 35 36 38 39 40 42 44 47 49 50 50 51 51 54 56 58 59 60 62 64 65 67 68 69 71 72 74 75 76 76 76 76 75 75 74 73 73 72
32 33 34 35 36 37 39 41 43 45 47 49 51 54 56 58 60 59 57 60 62 65 66 68 69 70 71 72 74 75 77 78 79 80 80 81 81 80 80 79 78 77 76
35 36 37 38 40 41 43 46 48 50 52 54 56 58 60 63 66 68 67 66 67 69 71 73 75 76 77 78 78 79 81 82 83 84 85 85 85 85 84 84 83 82 81
38 39 40 42 44 46 48 50 52 54 57 59 61 63 65 67 69 73 75 75 75 74 76 77 79 80 82 83 84 85 85 86 87 88 89 89 90 89 89 88 87 86 85
41 42 44 46 48 50 53 55 57 59 61 63 65 68 70 72 74 77 79 80 81 80 81 81 83 85 86 88 89 90 90 90 90 90 90 91 92 92 92 92 91 90 88
44 46 48 50 52 54 56 58 60 62 65 67 69 71 73 75 78 80 83 85 87 86 85 85 86 88 90 91 92 93 93 92 90 89 89 89 90 91 92 92 92 92 91
47 49 51 53 55 57 60 62 64 66 68 70 73 75 77 79 81 84 86 88 91 92 90 88 89 90 92 92 91 90 90 88 86 84 83 82 83 84 85 87 89 89 90
50 52 54 56 58 61 63 65 67 70 72 74 76 78 80 83 85 87 89 91 93 96 96 91 90 89 88 86 82 80 78 78 77 75 74 74 74 75 76 78 79 82 83
52 55 57 59 62 64 66 68 71 73 75 77 79 82 84 86 88 89 91 92 92 92 93 88 84 81 78 75 72 69 68 67 67 67 66 67 67 68 68 69 70 73 75
55 57 60 62 64 67 69 72 74 76 78 81 83 85 87 89 90 90 90 89 88 85 84 81 74 69 66 64 62 61 59 58 58 58 58 58 59 60 61 61 62 63 66
58 60 62 65 67 70 72 75 77 79 82 84 86 87 89 90 89 88 86 84 80 77 74 71 64 60 58 56 55 54 53 52 52 52 52 52 53 54 54 55 55 57 58
60 62 65 68 71 73 75 78 80 82 84 86 87 88 88 88 86 83 79 75 71 68 65 62 58 54 52 51 51 50 49 49 49 50 49 49 49 49 49 49 50 51 52
63 65 68 71 74 76 78 81 83 84 85 86 87 86 85 82 79 76 71 67 63 60 58 56 53 51 48 47 47 48 47 46 45 46 46 46 46 45 45 46 46 46 47
66 69 72 74 76 78 81 83 85 86 87 87 85 83 80 76 71 67 63 60 57 55 53 52 50 48 46 45 45 45 44 43 42 41 43 42 42 42 42 42 42 42 43
69 72 74 76 78 80 82 84 85 86 86 84 82 78 74 68 64 60 56 53 51 50 50 49 47 45 44 43 43 43 42 41 40 39 40 38 38 38 38 38 38 39 39
72 75 77 78 80 82 83 84 85 85 83 80 77 72 66 60 56 53 50 48 47 46 45 45 44 43 42 42 42 42 41 40 38 38 39 37 36 36 36 35 36 36 36
75 77 79 80 82 82 83 84 83 82 79 74 69 63 59 54 51 49 47 45 43 42 42 42 41 41 40 40 41 41 41 40 38 36 36 36 35 35 34 33 34 34 34
77 79 80 82 83 83 82 82 81 79 74 68 61 55 52 49 47 45 45 43 41 40 40 39 38 38 38 38 39 39 39 39 37 34 33 34 33 34 32 32 32 32 32
Wind_Direction
286 284 283 281 280 278 277 277 276 275 274 273 273 272 272 272 271 271 271 271 272 272 272 272 272 272 272 272 273 273 273 274 274 274 274 275 275 275 275 276 276 276 276
287 286 285 283 282 280 279 278 277 277 276 276 275 275 275 275 274 274 274 273 273 274 274 274 273 273 274 274 274 274 274 274 274 274 274 274 274 274 274 274 275 275 275
288 288 287 286 284 283 282 281 280 280 279 279 278 278 277 277 277 277 277 276 276 276 276 276 276 275 275 275 275 275 275 274 274 274 274 274 273 273 273 274 274 274 274
289 288 287 286 286 285 285 284 283 282 282 281 280 280 280 280 279 279 279 278 277 277 276 276 276 277 277 276 276 275 275 275 274 274 274 273 273 273 273 273 273 273 273
289 288 288 287 287 286 286 285 285 285 284 283 283 282 282 281 281 281 280 280 280 280 279 278 278 278 278 277 277 276 275 275 274 274 274 273 272 272 272 272 272 272 272
289 288 288 288 287 287 287 287 286 286 286 286 285 284 284 284 283 283 282 282 282 282 282 281 280 279 279 279 278 278 277 276 275 274 273 272 272 271 271 271 270 270 270
289 289 289 289 289 289 289 289 289 289 289 288 287 286 286 286 285 285 285 284 284 283 283 283 282 281 280 279 279 278 278 277 276 275 273 272 271 271 270 270 269 269 269
290 290 290 290 290 290 290 290 290 291 291 291 290 288 287 286 286 287 286 285 285 284 283 283 283 283 282 281 280 279 278 277 276 275 274 273 271 270 269 269 268 268 267
290 290 290 291 291 291 291 292 292 293 293 293 293 292 291 289 287 286 288 288 287 286 285 284 283 283 282 281 280 279 278 277 275 275 274 273 271 270 269 268 267 266 266
290 291 290 291 291 292 292 292 293 294 294 294 294 294 294 293 292 289 288 288 288 288 287 286 284 283 282 280 279 278 277 276 275 274 273 272 271 270 269 268 267 265 265
290 290 290 291 291 292 293 293 294 295 295 295 295 295 295 295 295 293 292 290 289 289 289 288 287 285 284 282 280 279 277 276 275 274 273 271 270 269 268 267 266 265 263
289 289 290 291 292 293 294 295 295 296 296 296 297 296 296 296 295 294 294 293 291 291 290 289 288 287 285 284 282 280 278 276 275 273 272 271 269 268 267 265 264 263 262
290 291 291 292 293 294 295 295 296 296 297 297 297 297 297 297 297 296 295 294 293 292 291 291 290 288 287 285 284 282 280 278 276 273 272 270 268 267 265 264 262 261 260
291 292 293 294 294 295 295 296 296 297 297 298 298 298 298 298 298 297 297 296 294 293 292 292 291 289 288 286 284 283 281 279 277 274 272 270 268 266 264 263 261 260 258
292 292 293 294 295 296 296 297 298 298 298 299 299 299 299 299 299 298 297 297 296 294 293 292 291 290 288 286 285 283 281 280 278 275 273 271 269 267 264 263 261 259 257
293 294 294 295 296 297 298 298 299 299 300 300 301 300 300 300 299 299 298 298 297 296 295 294 292 290 289 287 285 283 282 280 279 277 275 273 271 269 266 264 262 260 258
294 295 296 297 298 299 299 300 301 301 301 302 302 302 302 301 301 300 300 299 298 297 295 295 293 291 289 287 285 284 282 281 279 278 276 274 272 270 268 266 264 261 258
296 297 298 299 300 300 301 302 302 303 303 303 304 304 303 303 302 301 300 299 298 297 296 295 294 291 289 288 286 285 283 282 280 279 277 275 274 272 270 268 266 263 259
299 299 300 301 302 302 303 304 304 305 305 305 305 305 305 304 303 302 300 299 298 296 296 295 295 292 290 288 286 285 284 283 282 280 278 277 275 273 271 269 267 264 260
300 301 302 303 304 304 305 305 306 306 307 307 307 306 305 304 303 301 300 298 297 296 295 295 294 292 290 288 287 286 285 284 283 282 280 278 276 275 272 270 267 264 261
302 303 304 305 305 306 306 307 307 307 307 307 307 306 305 304 302 301 299 298 297 296 295 294 293 292 291 288 287 287 286 284 283 282 280 279 277 276 274 271 268 265 262
303 304 305 306 307 307 308 308 308 308 309 308 308 307 305 303 302 300 299 297 297 296 295 294 293 293 291 289 289 288 287 285 283 282 281 279 278 276 274 271 268 265 262
304 305 306 307 308 309 309 309 309 309 310 309 308 307 305 303 301 299 298 297 296 296 295 294 294 293 292 291 290 289 288 287 285 283 281 279 277 275 272 270 268 265 263
306 307 308 309 309 310 310 310 310 310 310 309 308 307 305 303 301 299 298 297 296 295 294 294 294 294 293 292 291 290 289 288 287 285 283 280 275 272 271 269 267 264 262
307 308 309 310 311 311 311 311 310 310 310 309 308 307 305 304 302 300 299 298 297 296 294 294 294 294 293 292 291 290 290 289 288 285 283 280 275 272 270 269 267 265 262
309 310 311 311 312 312 312 311 311 311 310 309 308 306 305 304 302 301 300 299 298 297 295 295 295 294 294 293 292 291 290 290 289 287 282 279 276 273 270 268 267 265 262
Height
5831 5830 5829 5828 5827 5826 5825 5824 5823 5823 5822 5821 5821 5820 5820 5819 5819 5818 5818 5817 5816 5815 5814 5813 5812 5811 5810 5809 5808 5807 5807 5806 5805 5805 5804 5804 5803 5803 5802 5802 5801 5801 5800
5824 5823 5822 5821 5819 5818 5817 5816 5815 5814 5814 5813 5812 5811 5811 5810 5809 5809 5808 5807 5806 5804 5803 5802 5801 5800 5799 5798 5797 5796 5795 5795 5794 5793 5793 5792 5792 5791 5791 5790 5790 5790 5789
5818 5816 5815 5813 5812 5811 5810 5808 5807 5806 5805 5804 5803 5802 5801 5800 5800 5798 5797 5797 5795 5794 5792 5791 5789 5788 5787 5786 5785 5784 5783 5782 5781 5781 5780 5780 5779 5779 5779 5778 5778 5778 5777
5811 5809 5807 5806 5804 5803 5802 5800 5799 5798 5797 5795 5794 5793 5792 5791 5790 5788 5787 5785 5784 5783 5781 5779 5777 5775 5774 5772 5771 5770 5769 5768 5767 5767 5766 5766 5766 5765 5765 5765 5765 5765 5764
5803 5802 5800 5798 5796 5795 5793 5792 5790 5789 5788 5786 5785 5784 5782 5781 5779 5778 5776 5774 5772 5771 5769 5768 5766 5763 5761 5759 5757 5755 5754 5753 5752 5752 5751 5751 5751 5750 5750 5750 5750 5750 5751
5795 5794 5792 5790 5788 5786 5784 5783 5781 5780 5778 5776 5775 5774 5772 5770 5768 5767 5765 5763 5761 5759 5756 5755 5753 5750 5748 5745 5743 5740 5739 5737 5736 5736 5735 5734 5734 5734 5734 5734 5735 5735 5736
5788 5786 5784 5782 5780 5778 5776 5774 5772 5771 5768 5766 5764 5763 5763 5760 5758 5756 5754 5752 5750 5747 5744 5741 5738 5736 5734 5731 5728 5725 5722 5720 5719 5718 5717 5717 5717 5717 5717 5717 5718 5719 5719
5780 5778 5776 5774 5772 5770 5768 5765 5763 5761 5759 5756 5753 5751 5751 5752 5748 5745 5741 5739 5736 5734 5731 5727 5724 5720 5717 5715 5712 5708 5705 5702 5700 5699 5698 5698 5698 5698 5698 5699 5700 5701 5702
5773 5771 5768 5766 5764 5762 5760 5757 5754 5752 5749 5746 5741 5738 5735 5735 5734 5734 5729 5724 5720 5717 5715 5711 5708 5704 5700 5697 5693 5689 5686 5683 5680 5678 5677 5677 5677 5677 5678 5679 5680 5681 5683
5765 5763 5761 5758 5756 5753 5750 5747 5744 5741 5738 5735 5730 5725 5721 5716 5713 5713 5715 5710 5705 5700 5696 5692 5689 5685 5681 5677 5673 5668 5664 5661 5658 5656 5655 5654 5654 5655 5655 5657 5658 5660 5662
5757 5755 5752 5749 5747 5744 5740 5737 5733 5729 5725 5721 5717 5712 5707 5702 5695 5690 5690 5691 5687 5682 5676 5671 5666 5662 5657 5653 5650 5645 5641 5637 5634 5631 5630 5629 5629 5630 5631 5632 5634 5636 5639
5749 5746 5743 5740 5736 5733 5729 5725 5721 5716 5711 5706 5701 5696 5690 5685 5679 5672 5667 5665 5662 5661 5655 5650 5644 5637 5631 5626 5622 5618 5615 5612 5608 5605 5603 5601 5601 5602 5604 5606 5608 5611 5614
5739 5736 5733 5729 5725 5721 5717 5712 5708 5702 5697 5691 5685 5679 5673 5666 5659 5652 5645 5640 5637 5636 5631 5626 5618 5610 5603 5597 5592 5588 5585 5581 5578 5576 5573 5572 5571 5572 5574 5576 5579 5583 5587
5729 5725 5722 5718 5713 5708 5703 5698 5693 5688 5681 5675 5669 5662 5655 5647 5639 5630 5622 5614 5609 5609 5606 5601 5592 5582 5574 5567 5561 5556 5553 5549 5546 5544 5542 5541 5540 5541 5543 5545 5549 5553 5558
5718 5714 5710 5705 5700 5695 5689 5684 5678 5671 5665 5658 5650 5643 5635 5627 5618 5609 5599 5589 5580 5575 5578 5576 5565 5554 5544 5537 5531 5524 5520 5517 5515 5513 5511 5510 5510 5511 5512 5515 5518 5523 5528
5707 5703 5698 5692 5687 5681 5674 5668 5661 5654 5647 5639 5631 5623 5614 5605 5595 5585 5575 5565 5553 5542 5541 5547 5535 5524 5514 5507 5502 5496 5492 5488 5486 5485 5483 5482 5482 5483 5484 5487 5490 5494 5499
5695 5690 5684 5678 5672 5665 5658 5651 5644 5636 5628 5620 5610 5601 5591 5581 5571 5560 5549 5539 5528 5515 5506 5512 5507 5496 5487 5481 5476 5472 5469 5466 5464 5461 5460 5458 5458 5459 5460 5462 5465 5468 5472
5681 5675 5669 5663 5656 5649 5641 5633 5625 5617 5608 5599 5588 5578 5567 5556 5545 5534 5523 5512 5502 5491 5480 5479 5481 5473 5465 5459 5455 5452 5449 5446 5444 5442 5440 5438 5438 5438 5439 5440 5442 5445 5448
5667 5660 5654 5647 5639 5631 5623 5614 5605 5596 5587 5576 5565 5554 5542 5530 5520 5508 5497 5487 5478 5469 5459 5454 5455 5452 5446 5441 5436 5434 5431 5429 5426 5424 5422 5421 5420 5420 5420 5421 5422 5425 5428
5652 5645 5638 5630 5622 5613 5604 5594 5585 5575 5565 5554 5542 5530 5518 5505 5494 5484 5474 5465 5456 5449 5442 5436 5434 5433 5429 5425 5420 5418 5416 5413 5411 5408 5406 5405 5404 5403 5403 5404 5405 5407 5409
5636 5629 5621 5613 5604 5594 5584 5574 5564 5554 5544 5533 5521 5508 5495 5483 5471 5461 5452 5445 5438 5432 5426 5421 5418 5415 5413 5409 5406 5402 5400 5398 5397 5394 5392 5391 5389 5389 5388 5388 5389 5390 5392
5621 5613 5604 5595 5586 5575 5564 5553 5541 5531 5521 5509 5497 5485 5473 5461 5451 5442 5434 5427 5421 5415 5410 5406 5403 5400 5397 5394 5391 5388 5385 5383 5383 5382 5378 5377 5375 5375 5374 5374 5374 5376 5377
5604 5596 5587 5577 5567 5556 5544 5532 5520 5508 5498 5485 5473 5463 5452 5442 5432 5425 5418 5412 5407 5401 5396 5391 5388 5386 5383 5380 5377 5374 5371 5369 5368 5367 5364 5364 5363 5362 5361 5361 5361 5363 5364
5587 5578 5568 5558 5547 5536 5523 5510 5498 5487 5476 5464 5452 5441 5432 5424 5415 5408 5403 5399 5394 5389 5383 5379 5375 5373 5369 5366 5363 5360 5358 5356 5356 5354 5351 5350 5350 5349 5349 5349 5350 5351 5352
5570 5560 5549 5538 5527 5516 5502 5489 5476 5466 5456 5445 5434 5423 5414 5407 5401 5394 5389 5385 5381 5377 5372 5367 5364 5360 5357 5354 5350 5347 5345 5343 5342 5342 5339 5337 5338 5337 5338 5339 5339 5340 5341
5551 5541 5531 5519 5507 5495 5482 5468 5455 5444 5436 5427 5418 5409 5400 5393 5387 5381 5375 5371 5367 5364 5360 5356 5353 5349 5346 5342 5339 5336 5333 5330 5329 5329 5328 5326 5325 5325 5327 5328 5328 5329 5331